TimeCST,TemperatureF,Dew PointF,Humidity,Sea Level PressureIn,VisibilityMPH,Wind Direction,Wind SpeedMPH,Gust SpeedMPH,PrecipitationIn,Events,Conditions,WindDirDegrees,DateUTC
1:53 AM,8.1,3.9,83,30.14,10.0,WNW,3.5,-,N/A,,Clear,300,2013-02-06 07:53:00
2:53 AM,7.0,3.9,87,30.17,10.0,WNW,3.5,-,N/A,,Clear,300,2013-02-06 08:53:00
3:53 AM,8.1,5.0,87,30.17,10.0,WSW,3.5,-,N/A,,Clear,240,2013-02-06 09:53:00
4:53 AM,3.0,1.9,95,30.19,9.0,Calm,Calm,-,N/A,,Clear,0,2013-02-06 10:53:00
5:53 AM,1.9,1.0,96,30.19,8.0,Calm,Calm,-,N/A,,Clear,0,2013-02-06 11:53:00
6:53 AM,1.0,-2.9,83,30.22,8.0,WSW,4.6,-,N/A,,Clear,240,2013-02-06 12:53:00
7:53 AM,1.9,-0.0,91,30.22,7.0,Calm,Calm,-,N/A,,Clear,0,2013-02-06 13:53:00
8:53 AM,8.1,7.0,95,30.24,7.0,Calm,Calm,-,N/A,,Clear,0,2013-02-06 14:53:00
9:53 AM,15.1,10.9,84,30.26,10.0,Calm,Calm,-,N/A,,Clear,0,2013-02-06 15:53:00
10:53 AM,21.0,10.9,65,30.26,10.0,Calm,Calm,-,N/A,,Clear,0,2013-02-06 16:53:00
11:53 AM,21.9,12.0,66,30.21,10.0,South,6.9,-,N/A,,Clear,170,2013-02-06 17:53:00
12:53 PM,24.1,14.0,65,30.23,10.0,South,5.8,-,N/A,,Clear,180,2013-02-06 18:53:00
1:53 PM,25.0,14.0,63,30.21,10.0,South,3.5,-,N/A,,Scattered Clouds,170,2013-02-06 19:53:00
2:53 PM,26.1,15.1,63,30.21,10.0,SSE,3.5,-,N/A,,Mostly Cloudy,150,2013-02-06 20:53:00
3:53 PM,27.0,16.0,63,30.20,10.0,South,4.6,-,N/A,,Overcast,170,2013-02-06 21:53:00
4:29 PM,26.6,17.6,69,30.16,2.0,South,3.5,-,0.00,Snow,Light Snow,170,2013-02-06 22:29:00
4:53 PM,26.1,19.0,75,30.21,1.5,SE,4.6,-,0.00,Snow,Light Snow,140,2013-02-06 22:53:00
5:27 PM,24.8,21.2,86,30.15,3.0,SE,4.6,-,0.00,Snow,Light Snow,130,2013-02-06 23:27:00
5:40 PM,24.8,21.2,86,30.15,6.0,ESE,4.6,-,0.00,,Overcast,120,2013-02-06 23:40:00
5:53 PM,25.0,21.9,88,30.19,6.0,SE,5.8,-,0.00,,Overcast,130,2013-02-06 23:53:00
6:53 PM,26.1,24.1,92,30.18,6.0,Calm,Calm,-,N/A,,Overcast,0,2013-02-07 00:53:00
7:53 PM,26.1,24.1,92,30.18,5.0,East,3.5,-,N/A,,Overcast,80,2013-02-07 01:53:00
8:53 PM,28.0,25.0,88,30.16,6.0,SE,3.5,-,N/A,,Overcast,130,2013-02-07 02:53:00
9:18 PM,28.4,26.6,93,30.11,2.0,SE,4.6,-,0.00,Snow,Light Snow,130,2013-02-07 03:18:00
9:25 PM,28.4,26.6,93,30.11,1.8,SE,3.5,-,0.00,Snow,Light Snow,130,2013-02-07 03:25:00
9:53 PM,28.9,27.0,92,30.14,1.0,SSE,5.8,-,0.01,Snow,Light Snow,150,2013-02-07 03:53:00
10:04 PM,30.2,28.4,93,30.10,0.8,SSE,5.8,-,0.01,Snow,Light Snow,150,2013-02-07 04:04:00
10:12 PM,30.2,28.4,93,30.10,1.0,SSE,5.8,-,0.01,Snow,Light Snow,160,2013-02-07 04:12:00
10:25 PM,30.2,28.4,93,30.09,1.2,SSE,6.9,-,0.01,Snow,Light Snow,160,2013-02-07 04:25:00
10:33 PM,30.2,30.2,100,30.09,2.0,SSE,6.9,-,0.01,Snow,Light Snow,150,2013-02-07 04:33:00
10:53 PM,32.0,30.0,92,30.11,4.0,SSE,6.9,-,0.01,,Overcast,150,2013-02-07 04:53:00
11:53 PM,34.0,30.9,89,30.14,4.0,South,10.4,-,0.00,Snow,Light Snow,190,2013-02-07 05:53:00